When you browse on this site, cookies collect data to enhance your experience and personalize the content and advertising you see.
Visit our Privacy Policy to learn more. By continuing to use the site, you agree to this use of cookies and data.
  • In Österreich
  • Länderverzeichnis
  • Für 7 Tage
  • Wassertemperatur
  • Satellitenkarten
  • Wetterkarte
  • News
  • Widgets
  • user-avatar
    Anmelden

    Stündliche Wetter Kopina

    Heute, 22 April, Montag

    Zeit Temperatur Niederschläge Wind Luftdruck Luftfeuchtigkeit
    00:00 +4°C° 0 mm 2 m/S 760 mmHg 83%
    01:00 +4°C° 0 mm 2 m/S 760 mmHg 92%
    02:00 +4°C° 0 mm 2 m/S 760 mmHg 93%
    03:00 +4°C° 0 mm 2 m/S 760 mmHg 95%
    04:00 +3°C° 0 mm 3 m/S 760 mmHg 96%
    05:00 +4°C° 0 mm 3 m/S 760 mmHg 91%
    06:00 +6°C° 0 mm 4 m/S 760 mmHg 86%
    07:00 +8°C° 0 mm 3 m/S 761 mmHg 78%
    08:00 +10°C° 0 mm 4 m/S 761 mmHg 72%
    09:00 +12°C° 0 mm 4 m/S 761 mmHg 65%
    10:00 +14°C° 0 mm 5 m/S 761 mmHg 59%
    11:00 +15°C° 0 mm 5 m/S 761 mmHg 56%
    12:00 +16°C° 0 mm 5 m/S 761 mmHg 53%
    13:00 +17°C° 0 mm 5 m/S 761 mmHg 51%
    14:00 +17°C° 0 mm 5 m/S 761 mmHg 51%
    15:00 +17°C° 0 mm 5 m/S 761 mmHg 52%
    16:00 +17°C° 0 mm 5 m/S 761 mmHg 52%
    17:00 +15°C° 0 mm 5 m/S 761 mmHg 56%
    18:00 +13°C° 0 mm 4 m/S 761 mmHg 60%
    19:00 +12°C° 0 mm 4 m/S 761 mmHg 64%
    20:00 +11°C° 0 mm 4 m/S 761 mmHg 63%
    21:00 +10°C° 0 mm 4 m/S 762 mmHg 62%
    22:00 +8°C° 0 mm 4 m/S 762 mmHg 61%
    23:00 +8°C° 0 mm 4 m/S 762 mmHg 61%

    Morgen, 23 April, Dienstag

    Zeit Temperatur Niederschläge Wind Luftdruck Luftfeuchtigkeit
    00:00 +7°C° 0 mm 4 m/S 762 mmHg 61%
    01:00 +7°C° 0 mm 4 m/S 762 mmHg 61%
    02:00 +7°C° 0 mm 4 m/S 762 mmHg 60%
    03:00 +6°C° 0 mm 4 m/S 762 mmHg 59%
    04:00 +6°C° 0 mm 5 m/S 762 mmHg 58%
    05:00 +7°C° 0 mm 5 m/S 762 mmHg 56%
    06:00 +9°C° 0 mm 6 m/S 762 mmHg 54%
    07:00 +10°C° 0 mm 7 m/S 762 mmHg 52%
    08:00 +11°C° 0 mm 8 m/S 762 mmHg 49%
    09:00 +13°C° 0 mm 8 m/S 762 mmHg 46%
    10:00 +15°C° 0 mm 9 m/S 761 mmHg 42%
    11:00 +16°C° 0 mm 9 m/S 761 mmHg 42%
    12:00 +16°C° 0 mm 9 m/S 761 mmHg 41%
    13:00 +17°C° 0 mm 9 m/S 760 mmHg 40%
    14:00 +17°C° 0 mm 9 m/S 760 mmHg 42%
    15:00 +17°C° 0 mm 8 m/S 759 mmHg 44%
    16:00 +17°C° 0 mm 8 m/S 759 mmHg 46%
    17:00 +15°C° 0 mm 7 m/S 759 mmHg 48%
    18:00 +14°C° 0 mm 6 m/S 759 mmHg 51%
    19:00 +11°C° 0 mm 6 m/S 759 mmHg 54%
    20:00 +11°C° 0 mm 6 m/S 759 mmHg 54%
    21:00 +11°C° 0 mm 6 m/S 759 mmHg 53%
    22:00 +11°C° 0 mm 7 m/S 758 mmHg 53%
    23:00 +10°C° 0 mm 7 m/S 758 mmHg 53%

    übermorgen, 24 April, Mittwoch

    Zeit Temperatur Niederschläge Wind Luftdruck Luftfeuchtigkeit
    00:00 +10°C° 0 mm 7 m/S 758 mmHg 53%
    01:00 +10°C° 0 mm 7 m/S 758 mmHg 54%
    02:00 +10°C° 0 mm 7 m/S 758 mmHg 54%
    03:00 +9°C° 0 mm 7 m/S 758 mmHg 55%
    04:00 +9°C° 0 mm 7 m/S 758 mmHg 56%
    05:00 +9°C° 0 mm 8 m/S 758 mmHg 56%
    06:00 +10°C° 0 mm 9 m/S 757 mmHg 57%
    07:00 +10°C° 0 mm 9 m/S 757 mmHg 57%
    08:00 +12°C° 0 mm 9 m/S 757 mmHg 54%
    09:00 +13°C° 0 mm 10 m/S 757 mmHg 52%
    10:00 +14°C° 0 mm 10 m/S 757 mmHg 49%
    11:00 +16°C° 0 mm 10 m/S 757 mmHg 49%
    12:00 +17°C° 0 mm 10 m/S 757 mmHg 49%
    13:00 +18°C° 0 mm 9 m/S 757 mmHg 48%
    14:00 +18°C° 0 mm 9 m/S 757 mmHg 50%
    15:00 +18°C° 0 mm 8 m/S 756 mmHg 52%
    16:00 +18°C° 0 mm 8 m/S 756 mmHg 54%
    17:00 +17°C° 0 mm 7 m/S 756 mmHg 58%
    18:00 +16°C° 0 mm 6 m/S 756 mmHg 61%
    19:00 +15°C° 0 mm 6 m/S 756 mmHg 64%
    20:00 +14°C° 0 mm 6 m/S 756 mmHg 65%
    21:00 +14°C° 0 mm 6 m/S 756 mmHg 66%
    22:00 +13°C° 0 mm 6 m/S 756 mmHg 66%
    23:00 +13°C° 0 mm 6 m/S 756 mmHg 69%

    25 April, Donnerstag

    Zeit Temperatur Niederschläge Wind Luftdruck Luftfeuchtigkeit
    00:00 +13°C° 0 mm 5 m/S 756 mmHg 73%
    01:00 +12°C° 0 mm 5 m/S 756 mmHg 76%
    02:00 +12°C° 0 mm 5 m/S 756 mmHg 77%
    03:00 +12°C° 0 mm 5 m/S 756 mmHg 79%
    04:00 +10°C° 0 mm 5 m/S 756 mmHg 80%
    05:00 +12°C° 0 mm 5 m/S 756 mmHg 79%
    06:00 +13°C° 0 mm 6 m/S 756 mmHg 77%
    07:00 +13°C° 0 mm 6 m/S 756 mmHg 76%
    08:00 +15°C° 0 mm 6 m/S 756 mmHg 72%
    09:00 +17°C° 0 mm 6 m/S 756 mmHg 67%
    10:00 +20°C° 0 mm 5 m/S 756 mmHg 63%
    11:00 +21°C° 0 mm 5 m/S 756 mmHg 60%
    12:00 +22°C° 0 mm 5 m/S 756 mmHg 56%
    13:00 +23°C° 0 mm 5 m/S 755 mmHg 53%
    14:00 +23°C° 0 mm 5 m/S 755 mmHg 54%
    15:00 +23°C° 0 mm 5 m/S 755 mmHg 55%
    16:00 +23°C° 0 mm 5 m/S 755 mmHg 56%
    17:00 +22°C° 0 mm 4 m/S 755 mmHg 62%
    18:00 +20°C° 0 mm 4 m/S 754 mmHg 67%
    19:00 +18°C° 0 mm 4 m/S 754 mmHg 73%
    20:00 +18°C° 0 mm 4 m/S 754 mmHg 74%
    21:00 +17°C° 0 mm 4 m/S 754 mmHg 75%
    22:00 +17°C° 0 mm 4 m/S 754 mmHg 76%
    23:00 +15°C° 0 mm 4 m/S 754 mmHg 78%

    26 April, Freitag

    Zeit Temperatur Niederschläge Wind Luftdruck Luftfeuchtigkeit
    00:00 +14°C° 0 mm 4 m/S 754 mmHg 79%
    01:00 +14°C° 0 mm 4 m/S 754 mmHg 81%
    02:00 +14°C° 0 mm 4 m/S 754 mmHg 82%
    03:00 +13°C° 0 mm 4 m/S 753 mmHg 83%
    04:00 +13°C° 0 mm 4 m/S 753 mmHg 85%
    05:00 +14°C° 0 mm 4 m/S 753 mmHg 82%
    06:00 +15°C° 0 mm 5 m/S 753 mmHg 80%
    07:00 +16°C° 0 mm 5 m/S 753 mmHg 78%
    08:00 +19°C° 0 mm 5 m/S 752 mmHg 71%
    09:00 +21°C° 0 mm 5 m/S 752 mmHg 64%
    10:00 +25°C° 0 mm 5 m/S 752 mmHg 56%
    11:00 +25°C° 0 mm 5 m/S 752 mmHg 56%
    12:00 +25°C° 0 mm 4 m/S 751 mmHg 56%
    13:00 +26°C° 0 mm 4 m/S 751 mmHg 56%
    14:00 +25°C° 0 mm 3 m/S 751 mmHg 57%
    15:00 +25°C° 0 mm 3 m/S 750 mmHg 58%
    16:00 +25°C° 0 mm 3 m/S 750 mmHg 59%
    17:00 +22°C° 0.3 mm 3 m/S 750 mmHg 64%
    18:00 +21°C° 0.3 mm 3 m/S 750 mmHg 69%
    19:00 +20°C° 0.3 mm 2 m/S 750 mmHg 74%
    20:00 +19°C° 0.3 mm 2 m/S 750 mmHg 78%
    21:00 +18°C° 0.3 mm 3 m/S 750 mmHg 83%
    22:00 +17°C° 0.3 mm 3 m/S 750 mmHg 88%
    23:00 +16°C° 0.6 mm 3 m/S 750 mmHg 91%

    27 April, Samstag

    Zeit Temperatur Niederschläge Wind Luftdruck Luftfeuchtigkeit
    00:00 +14°C° 0.6 mm 3 m/S 751 mmHg 93%
    01:00 +14°C° 0.6 mm 2 m/S 751 mmHg 96%
    02:00 +13°C° 0.1 mm 3 m/S 751 mmHg 96%
    03:00 +12°C° 0.1 mm 3 m/S 751 mmHg 95%
    04:00 +12°C° 0.1 mm 3 m/S 752 mmHg 94%
    05:00 +13°C° 0 mm 3 m/S 752 mmHg 91%
    06:00 +13°C° 0 mm 4 m/S 752 mmHg 89%
    07:00 +14°C° 0 mm 4 m/S 753 mmHg 87%
    08:00 +13°C° 0 mm 4 m/S 753 mmHg 86%
    09:00 +13°C° 0 mm 5 m/S 754 mmHg 85%
    10:00 +13°C° 0 mm 5 m/S 754 mmHg 85%
    11:00 +14°C° 0 mm 5 m/S 754 mmHg 79%
    12:00 +15°C° 0 mm 5 m/S 755 mmHg 74%
    13:00 +16°C° 0 mm 5 m/S 755 mmHg 69%
    14:00 +16°C° 0 mm 5 m/S 755 mmHg 65%
    15:00 +15°C° 0 mm 5 m/S 756 mmHg 60%
    16:00 +15°C° 0 mm 5 m/S 756 mmHg 56%
    17:00 +14°C° 0 mm 4 m/S 756 mmHg 61%
    18:00 +13°C° 0 mm 3 m/S 756 mmHg 66%
    19:00 +12°C° 0 mm 2 m/S 756 mmHg 72%
    20:00 +11°C° 0 mm 3 m/S 757 mmHg 75%
    21:00 +10°C° 0 mm 3 m/S 757 mmHg 79%
    22:00 +9°C° 0 mm 3 m/S 757 mmHg 82%
    23:00 +9°C° 0 mm 3 m/S 758 mmHg 85%
    Mehr zeigen